Vorticity
nan nan nan nan nan nan nan nan nan nan nan nan nan nan nan nan nan nan nan nan nan nan nan nan nan nan nan nan nan nan nan nan nan nan nan nan nan nan nan nan nan nan nan
nan 13 13 9 9 8 9 7 9 9 9 9 12 10 9 9 8 10 8 8 9 16 13 9 8 6 6 6 5 6 6 6 6 6 6 6 6 6 6 7 7 7 nan
nan 9 6 9 13 9 9 10 7 7 8 9 7 6 6 8 9 6 8 6 1 7 11 9 8 7 6 6 7 6 5 7 7 8 8 7 7 7 7 7 7 6 nan
nan 8 5 6 7 9 10 11 9 10 5 8 7 7 8 6 6 8 10 8 6 2 2 9 11 8 7 7 7 6 8 7 7 7 8 8 7 7 6 5 6 6 nan
nan 8 6 7 7 10 8 9 9 9 8 6 6 7 8 8 8 8 7 10 7 6 2 1 2 8 11 8 7 6 7 7 7 7 8 7 6 6 6 6 6 6 nan
nan 5 6 8 8 10 11 6 7 10 9 8 5 5 7 8 8 8 8 7 9 8 7 1 -2 1 7 12 8 7 7 7 6 7 6 8 7 6 6 6 6 6 nan
nan 6 8 6 8 8 7 10 8 9 8 6 1 4 4 6 8 9 8 8 11 8 9 6 7 4 1 3 10 12 8 7 7 7 7 6 6 6 7 6 7 7 nan
nan 6 7 8 10 8 8 8 8 8 10 4 2 3 5 3 5 8 9 11 9 7 7 6 7 9 7 1 2 7 12 10 9 5 6 7 7 6 6 7 8 8 nan
nan 7 8 7 8 10 9 7 8 9 10 8 8 2 5 9 6 6 7 9 8 7 7 9 8 8 7 10 9 1 6 13 12 8 7 7 7 7 7 7 8 8 nan
nan 7 7 7 7 8 9 8 7 9 9 9 9 7 5 10 6 7 7 9 9 7 7 7 7 8 4 3 8 8 7 11 10 9 8 8 7 7 8 8 8 8 nan
nan 7 7 8 9 8 7 9 10 8 8 9 8 10 8 4 7 9 10 9 9 10 9 8 7 7 9 7 5 6 6 8 10 10 8 8 8 9 9 9 8 8 nan
nan 10 8 7 7 9 9 10 8 8 8 8 9 8 11 9 8 5 8 13 11 10 7 8 8 7 7 7 11 10 6 8 9 8 9 9 9 9 9 9 9 9 nan
nan 12 7 7 8 8 8 9 8 8 10 9 9 10 9 7 9 7 8 9 10 10 9 9 8 9 8 8 9 8 5 8 8 8 8 7 8 9 8 10 10 10 nan
nan 9 8 7 8 8 8 8 7 7 9 10 9 9 10 12 11 11 11 6 7 8 8 10 11 8 8 11 11 4 3 7 8 8 8 7 8 8 9 9 8 9 nan
nan 8 8 7 7 7 8 6 7 9 8 8 9 10 9 9 10 12 11 11 9 9 11 9 10 12 8 10 9 5 8 6 6 8 8 7 8 8 10 8 9 9 nan
nan 8 7 7 7 8 8 7 8 8 8 8 9 9 9 9 9 9 9 11 10 8 10 16 16 13 8 11 7 8 8 7 5 7 7 7 8 8 8 8 9 8 nan
nan 8 9 8 8 8 8 7 7 9 9 7 8 8 9 9 10 10 9 8 9 9 12 13 17 14 10 10 8 9 7 4 7 7 6 7 7 9 8 10 9 8 nan
nan 9 9 8 9 9 9 9 8 9 9 9 9 9 8 9 10 9 9 10 10 10 13 11 10 13 10 7 11 7 6 9 9 9 6 6 8 8 9 9 8 7 nan
nan 9 9 10 10 9 10 10 9 9 10 10 10 9 9 8 8 9 10 12 12 11 9 8 10 10 10 9 9 8 9 8 10 7 5 6 4 9 10 7 8 8 nan
nan 9 9 9 9 11 12 11 12 10 9 10 9 10 12 13 15 15 10 9 10 11 11 9 10 10 9 8 6 8 10 8 8 5 5 8 4 2 6 8 7 10 nan
nan 10 10 10 10 12 16 16 11 12 11 9 10 8 8 10 13 16 17 19 16 10 12 12 9 8 9 9 8 8 8 8 8 8 7 6 7 6 4 5 10 8 nan
nan 13 15 15 15 10 11 18 19 15 11 9 7 8 7 8 2 5 12 12 15 21 17 10 11 9 9 5 11 11 8 8 8 10 8 8 6 8 7 4 9 12 nan
nan 11 12 14 16 15 12 11 15 17 12 12 12 11 7 8 9 5 5 7 6 11 13 19 16 9 11 10 8 9 8 7 9 12 9 9 9 9 8 8 4 10 nan
nan 10 9 11 10 11 12 8 11 14 10 10 12 14 15 8 9 11 9 9 7 9 13 15 15 21 19 15 9 8 11 6 9 14 11 6 10 10 8 7 6 8 nan
nan 10 12 11 12 13 11 7 7 9 10 9 8 9 13 12 9 10 14 12 8 6 9 11 11 13 17 16 22 19 11 12 9 5 10 13 12 8 8 8 6 6 nan
nan nan nan nan nan nan nan nan nan nan nan nan nan nan nan nan nan nan nan nan nan nan nan nan nan nan nan nan nan nan nan nan nan nan nan nan nan nan nan nan nan nan nan
CAPE
2228 1716 1765 1772 1686 1925 906 713 554 1157 997 945 1243 1121 1071 1137 1164 1011 434 67 680 841 977 973 500 290 83 19 9 10 10 10 8 6 3 3 2 2 2 2 2 2 3
1445 1308 960 759 550 362 382 420 948 519 821 1128 945 967 666 196 102 41 18 2 20 110 328 336 152 48 13 7 5 7 8 8 7 5 1 2 2 2 1 2 3 3 4
55 17 11 171 182 233 208 377 511 452 416 709 442 29 5 6 9 5 7 5 0 0 1 18 11 9 11 7 5 2 3 4 2 2 2 2 1 2 2 2 2 1 2
1 5 1 56 165 331 248 414 417 215 703 786 70 5 6 3 2 5 7 6 5 1 0 0 10 7 9 8 11 9 5 4 5 7 3 1 2 1 2 2 3 2 1
0 0 0 51 127 172 193 100 201 527 219 103 2 3 5 5 2 0 1 3 0 0 0 0 0 0 3 9 14 8 9 4 5 2 3 3 4 4 4 4 3 2 1
0 0 0 7 83 53 37 36 50 84 81 35 0 2 1 1 1 2 0 0 3 0 0 0 0 0 0 1 6 9 14 9 7 5 6 5 2 5 6 4 3 3 2
0 0 0 0 0 3 26 24 137 54 116 0 0 4 1 0 0 0 0 0 5 2 3 5 0 0 0 0 0 3 17 6 4 14 7 4 5 5 5 5 3 3 2
0 0 0 0 0 0 1 19 88 28 115 7 14 4 3 2 0 0 0 0 0 0 0 0 0 0 0 0 1 0 3 6 10 6 6 4 3 4 5 5 5 5 5
0 0 0 0 0 0 0 0 0 0 9 85 39 69 13 9 1 0 0 0 0 0 0 0 0 0 0 0 0 0 0 4 8 3 6 7 4 4 4 4 4 5 6
0 0 0 0 0 0 0 0 0 0 4 15 81 44 98 0 4 0 0 0 0 0 0 0 0 0 0 0 0 0 0 0 1 8 8 5 2 3 4 6 4 4 3
0 0 0 0 0 0 0 0 0 0 0 0 0 45 45 71 85 12 0 0 0 0 0 0 0 0 0 0 0 0 0 0 0 2 2 5 5 3 3 2 2 3 4
0 0 0 0 0 0 0 0 0 0 0 0 0 0 5 18 30 49 23 0 0 0 0 0 0 0 0 0 0 0 0 0 0 1 4 8 9 6 6 7 7 8 6
6 4 0 0 0 0 0 0 1 2 3 4 2 1 1 4 23 49 48 0 0 0 0 0 0 0 0 0 0 1 0 0 0 2 3 5 6 7 9 9 10 7 14
18 11 1 0 0 0 0 0 0 1 1 3 4 8 8 15 24 24 52 32 0 0 0 0 0 0 0 2 1 3 2 0 0 2 2 4 7 7 7 7 11 17 18
4 14 2 0 0 0 0 0 0 2 1 1 1 1 1 0 15 18 33 51 16 30 0 0 0 0 0 0 1 1 3 1 0 0 1 1 4 7 8 9 10 6 5
98 0 42 20 5 4 0 0 1 4 0 4 0 0 0 0 0 0 0 8 47 33 28 0 0 0 3 1 0 5 1 3 0 1 0 0 3 3 7 6 6 6 5
146 77 54 35 18 20 12 5 3 6 5 5 3 1 0 0 0 0 0 0 0 20 39 0 0 0 6 2 0 0 0 3 5 2 0 0 2 2 1 7 2 3 4
62 29 22 41 45 26 40 24 8 4 3 4 3 0 0 0 0 0 0 0 2 9 19 0 0 0 4 0 1 0 2 2 5 5 1 5 4 3 4 11 7 4 3
18 21 19 23 17 22 4 16 10 8 0 1 0 0 0 0 1 0 0 0 0 3 2 0 0 2 1 0 3 5 6 1 2 5 0 0 6 8 4 3 3 5 5
0 2 11 17 7 5 5 6 8 6 3 0 0 0 0 0 2 4 2 0 0 0 0 7 0 0 0 6 2 8 19 9 4 3 2 0 2 1 3 4 1 4 4
0 0 4 4 3 9 12 15 10 2 2 2 2 0 0 0 0 0 0 2 2 0 1 0 7 4 3 8 8 8 16 7 2 3 3 0 0 1 1 4 1 2 4
0 2 4 2 6 4 0 0 0 6 1 4 2 0 0 0 0 0 0 0 0 1 6 0 0 1 5 2 18 16 18 22 15 5 3 1 5 6 1 2 1 3 2
5 1 1 1 0 0 0 0 0 1 3 5 1 2 1 0 0 1 0 0 0 0 0 0 5 5 9 11 7 19 23 15 3 2 2 4 0 1 0 2 0 3 7
9 3 4 8 4 0 0 0 0 4 5 0 0 2 1 1 0 0 2 1 2 2 0 0 1 14 13 11 12 11 14 16 2 0 4 9 9 8 11 0 0 1 1
2 1 6 1 3 4 0 0 1 3 3 7 2 1 1 3 0 0 1 3 8 7 2 0 1 0 0 0 1 7 12 6 9 14 1 15 14 7 8 17 2 0 0
10 2 0 1 2 1 1 1 5 8 7 8 5 3 0 2 0 0 6 9 18 7 13 10 7 4 1 0 0 1 40 3 20 10 5 6 14 3 13 18 11 0 0